User: anonymous   Login
Location: Contre
(49.7477°N, 2.0963°E)
Time: 09:52:52
(UTC+00:00)
Language:

Cosmos 1825 - Orbit

View from above orbital plane
View from above orbital plane
View from above satellite
View from above satellite

Ground track
Ground track

The orbit data is extracted from the following two-line orbital elements,

1 17566U 87024A   23156.80515235  .00009988  00000-0  35499-3 0  9999
2 17566  82.5022 282.0896 0004017 150.1888 209.9581 15.28862801984820
Epoch (UTC): 05 June 2023 19:19:25
Eccentricity: 0.0004017
inclination: 82.5022°
perigee height: 476 km
apogee height: 482 km
right ascension of ascending node: 282.0896°
argument of perigee: 150.1888°
revolutions per day: 15.28862801
mean anomaly at epoch: 209.9581°
orbit number at epoch: 98482

The dashed part of the orbit path shows where the satellite is in the earth's shadow,  

DLR